Regional Weather Roundup
Issued by NWS Sterling, VA

Home | Current Version | Previous Version | Graphics & Text | Print | Product List | Glossary On
Versions: 1 2 3 4 5 6 7 8 9 10 11 12 13 14 15 16 17 18 19 20 21 22 23 24 25 26 27 28
000
ASUS41 KLWX 240810
RWRLWX

REGIONAL WEATHER ROUNDUP
NATIONAL WEATHER SERVICE BALTIMORE MD/WASHINGTON DC
400 AM EDT FRI OCT 24 2014

Note: "FAIR" indicates few or no clouds below 12,000 feet
with no significant weather and/or obstructions to visibility.
 TC=TEMPERATURE CELSIUS

 * =Non NWS site. Station does not report precipitation (e.g. rain,
    snow, etc.), thunder, or fog.

DCZ001-MDZ009-015-VAZ040>042-051-053>054-240900-
WASHINGTON METRO

CITY           SKY/WX    TMP DP  RH WIND       PRES   REMARKS
WASHINGTON NAT PTCLDY    58  41  53 NW10G18   29.92F
DULLES         CLEAR     53  41  63 NW10      29.93S
ANDREWS AFB    CLEAR     55  41  60 NW12      29.91S
FT BELVOIR     CLEAR     54  42  63 NW7       29.93S
QUANTICO       CLEAR     53  43  68 NW6       29.94F
COLLEGE PARK*  CLEAR     55  41  58 NW9       29.91S
LEESBURG*      CLEAR     54  45  71 N10G17    29.95R
MANASSAS*      CLEAR     54  43  66 NW8       29.94S
GAITHERSBURG*  CLEAR     52  39  62 NW9G20    29.95S

$$

MDZ006>007-011-014-240900-
BALTIMORE METRO

CITY           SKY/WX    TMP DP  RH WIND       PRES   REMARKS
BWI AIRPORT    PTCLDY    54  41  61 W10       29.89R
MD SCIENCE CTR   N/A     57  40  52 MISG      29.89R
MARTIN STATE   PTCLDY    55  43  62 SW5       29.89S
ANNAPOLIS      PTCLDY    56  42  59 W8        29.89R
FORT MEADE*    PTCLDY    50  41  71 W3        29.93R

$$

MDZ012-015-019>023-240900-
MARYLAND EASTERN SHORE

CITY           SKY/WX    TMP DP  RH WIND       PRES   REMARKS
OCEAN CITY     CLOUDY    51  45  79 W5        29.85R
SALISBURY      CLOUDY    55  48  77 W6        29.87R
BAY BRIDGE AP*   N/A     55  41  58 W15       29.89R
CAMBRIDGE*     MOCLDY    59  43  55 NW10G22   29.87S
EASTON*        CLOUDY    59  46  62 NW10      29.91R

$$

MDZ017>025-240900-
SOUTHERN MARYLAND

CITY           SKY/WX    TMP DP  RH WIND       PRES   REMARKS
PATUXENT RIVER CLEAR     54  41  61 W13       29.90R
ST INIGOES     CLEAR     56  39  53 NW9       29.89S
LEONARDTOWN*   CLEAR     52  41  66 W5        29.92R

$$

MDZ003>005-240900-
NORTH CENTRAL MARYLAND

CITY           SKY/WX    TMP DP  RH WIND       PRES   REMARKS
FREDERICK*     CLEAR     57  41  54 NW6       29.97S
HAGERSTOWN APT CLEAR     52  41  66 N8        29.95S
WESTMINSTER*   CLOUDY    54  43  66 NW13G20   29.91S

$$

MDZ501>502-240900-
WESTERN MARYLAND

CITY           SKY/WX    TMP DP  RH WIND       PRES   REMARKS
OAKLAND*       FOG       39 N/A N/A NW6       30.05S VSB 1/2
CUMBERLAND*    PTCLDY    52  43  71 NW10G17   30.05F

$$

VAZ025>031-240900-
SHENANDOAH VALLEY

CITY           SKY/WX    TMP DP  RH WIND       PRES   REMARKS
WINCHESTER*    CLEAR     54  37  54 NW20G25   29.96R
FRONT ROYAL*   FAIR      52  41  66 W3        29.96S
LURAY*         FAIR      54  43  66 NW7       29.98F
NEW MARKET*    FAIR      46  40  81 CALM      29.99F
STAUNTON*      CLEAR     39  35  88 CALM      30.01F
WAYNESBORO*    FAIR      44  38  80 CALM      30.00S

$$

WVZ021-048>050-054>055-240900-
EASTERN WEST VIRGINIA PANHANDLE

CITY           SKY/WX    TMP DP  RH WIND       PRES   REMARKS
MARTINSBURG    CLEAR     53  40  61 NW14      29.97S
PETERSBURG*    CLEAR     41  39  94 CALM      30.04S

$$

VAZ036>039-050-240900-
CENTRAL FOOTHILLS

CITY           SKY/WX    TMP DP  RH WIND       PRES   REMARKS
CHARLOTTESVILL CLEAR     53  40  61 W9        29.96F
CULPEPER*      CLEAR     57  43  58 NW3       29.95S
ORANGE*        CLEAR     45  41  87 SW6       29.96F
GORDONSVILLE*  FAIR      53  41  64 NW3       29.95F
WARRENTON*     FAIR      52  46  82 CALM      29.94S

$$

VAZ055>057-240900-
NORTH AND CENTRAL PIEDMONT

CITY           SKY/WX    TMP DP  RH WIND       PRES   REMARKS
FREDERICKSBRG* CLEAR     55  43  66 NW8       29.94S
STAFFORD*      CLEAR     49  41  75 W3        29.98S

$$

NCZ024-NYZ072-PAZ021-071-VAZ022-071-240900-
OTHER REGIONAL OBSERVATIONS

CITY           SKY/WX    TMP DP  RH WIND       PRES   REMARKS
NEW YORK CITY  MOCLDY    52  42  69 VRB6      29.81R
PHILADELPHIA   PTCLDY    56  45  66 NW5       29.84R
PITTSBURGH     PTCLDY    40  38  93 W6        30.08S
ROANOKE        PTCLDY    45  39  79 W9        30.08R
RICHMOND       CLEAR     53  42  66 W10       29.95R
RALEIGH        PTCLDY    47  41  80 CALM      30.01R

$$

ANZ530>537-240900-
MARINE OBSERVATIONS

STATION/POSITION TIME  TEMP    WIND        PRES
                       AIR SEA DIR/SP/G
                 (UTC) (F)     (DEG/KT/KT) (MB)
THOMAS PT LIGHT  0800   56 62  290/ 15/ 17 1013.1R
BALT KEY BRIDGE  0800   58     280/ 13/ 16 1011.7R
COVE POINT       0800   58     330/ 15/ 22 1011.8S
LEWISETTA        0800   58 60  320/ 15/ 20 1012.2S
SOLOMONS ISLAND  0800      64                N/A
PINEY POINT      0800          340/ 25/ 29   N/A

$$




USA.gov is the U.S. government's official web portal to all federal, state and local government web resources and services.